,,Stat6,,Stat2,,Stat8,,Stat9,,Stat10,,Wind1,,Wind1,
time,status,PA1M_AVG,status,PR1M_SUM,status,RH1M_AVG,status,SR1M_AVG,status,TA1M_AVG,status,W1dAve1m,status,W1sAve1m,
2005-02-07, 00:00:00,VALID,920.213,VALID,0,VALID,100,VALID,0,VALID,19.1456,VALID,147,VALID,0.683308,
2005-02-07, 00:01:00,VALID,920.186,VALID,0,VALID,100,VALID,0.0509425,VALID,19.1518,VALID,144,VALID,0.877208,
2005-02-07, 00:02:00,VALID,920.196,VALID,0,VALID,100,VALID,0.0169808,VALID,19.1709,VALID,146,VALID,0.890625,
2005-02-07, 00:03:00,VALID,920.184,VALID,0,VALID,100,VALID,0.0169808,VALID,19.1875,VALID,144,VALID,0.867365,
2005-02-07, 00:04:00,VALID,920.176,VALID,0,VALID,100,VALID,0.0169808,VALID,19.197,VALID,133,VALID,0.940104,
2005-02-07, 00:05:00,VALID,920.183,VALID,0,VALID,100,VALID,-0.0169808,VALID,19.2201,VALID,130,VALID,0.902083,
2005-02-07, 00:06:00,VALID,920.172,VALID,0,VALID,100,VALID,-0.101885,VALID,19.2272,VALID,122,VALID,0.425495,
2005-02-07, 00:07:00,VALID,920.158,VALID,0,VALID,100,VALID,-0.101885,VALID,19.2178,VALID,87,VALID,0.744665,
2005-02-07, 00:08:00,VALID,920.154,VALID,0,VALID,100,VALID,-0.101885,VALID,19.2178,VALID,102,VALID,1.01059,
2005-02-07, 00:09:00,VALID,920.129,VALID,0,VALID,100,VALID,-0.0849042,VALID,19.2367,VALID,114,VALID,0.934783,
2005-02-07, 00:10:00,VALID,920.118,VALID,0,VALID,100,VALID,-0.0849042,VALID,19.2305,VALID,114,VALID,0.913881,
2005-02-07, 00:11:00,VALID,920.108,VALID,0,VALID,100,VALID,-0.0679233,VALID,19.2312,VALID,116,VALID,0.693496,
2005-02-07, 00:12:00,VALID,920.093,VALID,0,VALID,100,VALID,-0.0849042,VALID,19.2243,VALID,126,VALID,0.620192,
2005-02-07, 00:13:00,VALID,920.072,VALID,0,VALID,100,VALID,-0.0849042,VALID,19.2176,VALID,133,VALID,0.652734,
2005-02-07, 00:14:00,VALID,920.067,VALID,0,VALID,100,VALID,-0.101885,VALID,19.2367,VALID,133,VALID,0.575174,
2005-02-07, 00:15:00,VALID,920.037,VALID,0,VALID,100,VALID,-0.101885,VALID,19.2563,VALID,137,VALID,0.5496,
2005-02-07, 00:16:00,VALID,920.027,VALID,0,VALID,100,VALID,-0.0679233,VALID,19.2563,VALID,137,VALID,0.623242,
2005-02-07, 00:17:00,VALID,920.012,VALID,0,VALID,100,VALID,-0.0849042,VALID,19.2784,VALID,132,VALID,0.956214,
2005-02-07, 00:18:00,VALID,919.964,VALID,0,VALID,100,VALID,-0.101885,VALID,19.308,VALID,132,VALID,0.757412,
2005-02-07, 00:19:00,VALID,919.949,VALID,0,VALID,100,VALID,-0.101885,VALID,19.3047,VALID,131,VALID,0.584339,
2005-02-07, 00:20:00,VALID,919.92,VALID,0,VALID,100,VALID,-0.0679233,VALID,19.3174,VALID,128,VALID,0.640451,
2005-02-07, 00:21:00,VALID,919.886,VALID,0,VALID,100,VALID,0,VALID,19.3259,VALID,126,VALID,0.473837,
2005-02-07, 00:22:00,VALID,919.868,VALID,0,VALID,100,VALID,0,VALID,19.31,VALID,126,VALID,0.536272,
2005-02-07, 00:23:00,VALID,919.857,VALID,0,VALID,100,VALID,0,VALID,19.3003,VALID,126,VALID,0.568924,
2005-02-07, 00:24:00,VALID,919.848,VALID,0,VALID,100,VALID,0,VALID,19.2936,VALID,129,VALID,0.727134,
2005-02-07, 00:25:00,VALID,919.845,VALID,0,VALID,100,VALID,0,VALID,19.2938,VALID,137,VALID,0.584821,
2005-02-07, 00:26:00,VALID,919.834,VALID,0,VALID,100,VALID,0,VALID,19.31,VALID,137,VALID,0.496875,
2005-02-07, 00:27:00,VALID,919.839,VALID,0,VALID,100,VALID,0,VALID,19.2998,VALID,137,VALID,0.645312,
2005-02-07, 00:28:00,VALID,919.829,VALID,0,VALID,100,VALID,0,VALID,19.3294,VALID,134,VALID,0.699505,
2005-02-07, 00:29:00,VALID,919.83,VALID,0,VALID,100,VALID,-0.0169808,VALID,19.3358,VALID,132,VALID,0.0769531,
2005-02-07, 00:30:00,VALID,919.824,VALID,0,VALID,100,VALID,0,VALID,19.3194,VALID,131,VALID,0,
2005-02-07, 00:31:00,VALID,919.82,VALID,0,VALID,100,VALID,0.0169808,VALID,19.31,VALID,131,VALID,0,
2005-02-07, 00:32:00,VALID,919.799,VALID,0,VALID,100,VALID,0,VALID,19.2842,VALID,132,VALID,0,
2005-02-07, 00:33:00,VALID,919.809,VALID,0,VALID,100,VALID,0,VALID,19.274,VALID,132,VALID,0,
2005-02-07, 00:34:00,VALID,919.797,VALID,0,VALID,100,VALID,0,VALID,19.2809,VALID,132,VALID,0.162024,
2005-02-07, 00:35:00,VALID,919.788,VALID,0,VALID,100,VALID,0,VALID,19.2551,VALID,132,VALID,0.275036,
2005-02-07, 00:36:00,VALID,919.787,VALID,0,VALID,100,VALID,-0.0169808,VALID,19.2454,VALID,132,VALID,0.135156,
2005-02-07, 00:37:00,VALID,919.789,VALID,0,VALID,100,VALID,0,VALID,19.2611,VALID,132,VALID,0.0219494,
2005-02-07, 00:38:00,VALID,919.785,VALID,0,VALID,100,VALID,0.0169808,VALID,19.2514,VALID,132,VALID,0.0504092,
2005-02-07, 00:39:00,VALID,919.787,VALID,0,VALID,100,VALID,0,VALID,19.2519,VALID,136,VALID,0.218559,
2005-02-07, 00:40:00,VALID,919.781,VALID,0,VALID,100,VALID,0,VALID,19.2193,VALID,139,VALID,0.101763,
2005-02-07, 00:41:00,VALID,919.754,VALID,0,VALID,100,VALID,0.0339617,VALID,19.1774,VALID,139,VALID,0.13899,
2005-02-07, 00:42:00,VALID,919.761,VALID,0,VALID,100,VALID,-0.0169808,VALID,19.1453,VALID,139,VALID,0.0748857,
2005-02-07, 00:43:00,VALID,919.759,VALID,0,VALID,100,VALID,0,VALID,19.1356,VALID,139,VALID,0.0024858,
2005-02-07, 00:44:00,VALID,919.75,VALID,0,VALID,100,VALID,-0.0169808,VALID,19.1227,VALID,139,VALID,0,
2005-02-07, 00:45:00,VALID,919.758,VALID,0,VALID,100,VALID,0.0169808,VALID,19.1714,VALID,139,VALID,0.0230741,
2005-02-07, 00:46:00,VALID,919.776,VALID,0,VALID,100,VALID,0,VALID,19.2004,VALID,139,VALID,0.0584162,
2005-02-07, 00:47:00,VALID,919.782,VALID,0,VALID,100,VALID,0,VALID,19.2,VALID,139,VALID,0.0571057,
2005-02-07, 00:48:00,VALID,919.805,VALID,0,VALID,100,VALID,0.0169808,VALID,19.2129,VALID,139,VALID,0.0288723,
2005-02-07, 00:49:00,VALID,919.816,VALID,0,VALID,100,VALID,0,VALID,19.2099,VALID,139,VALID,0,
2005-02-07, 00:50:00,VALID,919.821,VALID,0,VALID,100,VALID,0,VALID,19.2067,VALID,139,VALID,0,
2005-02-07, 00:51:00,VALID,919.82,VALID,0,VALID,100,VALID,0.0169808,VALID,19.2094,VALID,139,VALID,0,
2005-02-07, 00:52:00,VALID,919.819,VALID,0,VALID,100,VALID,0,VALID,19.2293,VALID,139,VALID,0.00472384,
2005-02-07, 00:53:00,VALID,919.787,VALID,0,VALID,100,VALID,0,VALID,19.2618,VALID,139,VALID,0.233008,
2005-02-07, 00:54:00,VALID,919.771,VALID,0,VALID,100,VALID,0,VALID,19.2777,VALID,139,VALID,0.305259,
2005-02-07, 00:55:00,VALID,919.767,VALID,0,VALID,100,VALID,0.0169808,VALID,19.2546,VALID,139,VALID,0.306548,
2005-02-07, 00:56:00,VALID,919.755,VALID,0,VALID,100,VALID,0,VALID,19.2193,VALID,139,VALID,0.319754,
2005-02-07, 00:57:00,VALID,919.744,VALID,0,VALID,100,VALID,0,VALID,19.2161,VALID,139,VALID,0.304865,
2005-02-07, 00:58:00,VALID,919.751,VALID,0,VALID,100,VALID,0.0509425,VALID,19.2196,VALID,139,VALID,0.517453,
2005-02-07, 00:59:00,VALID,919.747,VALID,0,VALID,100,VALID,0.0169808,VALID,19.1935,VALID,139,VALID,0.549183,
2005-02-07, 01:00:00,VALID,919.745,VALID,0,VALID,100,VALID,0.0169808,VALID,19.2161,VALID,139,VALID,0.673874,
2005-02-07, 01:01:00,VALID,919.757,VALID,0,VALID,100,VALID,0,VALID,19.2516,VALID,139,VALID,0.545759,
2005-02-07, 01:02:00,VALID,919.775,VALID,0,VALID,100,VALID,0,VALID,19.2618,VALID,138,VALID,0.145712,
2005-02-07, 01:03:00,VALID,919.77,VALID,0,VALID,100,VALID,0.0169808,VALID,19.2616,VALID,138,VALID,0.34043,
2005-02-07, 01:04:00,VALID,919.784,VALID,0,VALID,100,VALID,0,VALID,19.2745,VALID,131,VALID,0.454127,
2005-02-07, 01:05:00,VALID,919.768,VALID,0,VALID,100,VALID,-0.0169808,VALID,19.265,VALID,127,VALID,0.229802,
2005-02-07, 01:06:00,VALID,919.766,VALID,0,VALID,100,VALID,-0.0679233,VALID,19.2178,VALID,114,VALID,0.463605,
2005-02-07, 01:07:00,VALID,919.749,VALID,0,VALID,100,VALID,-0.101885,VALID,19.2113,VALID,98,VALID,0.465199,
2005-02-07, 01:08:00,VALID,919.746,VALID,0,VALID,100,VALID,-0.0849042,VALID,19.2044,VALID,98,VALID,0.393043,
2005-02-07, 01:09:00,VALID,919.752,VALID,0,VALID,100,VALID,-0.0339617,VALID,19.1527,VALID,98,VALID,0.325581,
2005-02-07, 01:10:00,VALID,919.741,VALID,0,VALID,100,VALID,-0.0339617,VALID,19.1403,VALID,98,VALID,0.290516,
2005-02-07, 01:11:00,VALID,919.74,VALID,0,VALID,100,VALID,-0.0509425,VALID,19.1271,VALID,98,VALID,0.233594,
2005-02-07, 01:12:00,VALID,919.755,VALID,0,VALID,100,VALID,-0.0509425,VALID,19.1001,VALID,87,VALID,0.386991,
2005-02-07, 01:13:00,VALID,919.763,VALID,0,VALID,100,VALID,-0.0849042,VALID,19.1304,VALID,67,VALID,0.435156,
2005-02-07, 01:14:00,VALID,919.772,VALID,0,VALID,100,VALID,-0.101885,VALID,19.1594,VALID,45,VALID,0.497456,
2005-02-07, 01:15:00,VALID,919.766,VALID,0.2,VALID,100,VALID,-0.0679233,VALID,19.179,VALID,42,VALID,0.491815,
2005-02-07, 01:16:00,VALID,919.769,VALID,0,VALID,100,VALID,-0.0849042,VALID,19.1885,VALID,42,VALID,0.616997,
2005-02-07, 01:17:00,VALID,919.772,VALID,0,VALID,100,VALID,-0.0849042,VALID,19.192,VALID,42,VALID,0.633371,
2005-02-07, 01:18:00,VALID,919.785,VALID,0,VALID,100,VALID,-0.0679233,VALID,19.1885,VALID,42,VALID,0.522104,
2005-02-07, 01:19:00,VALID,919.784,VALID,0,VALID,100,VALID,-0.0509425,VALID,19.1845,VALID,42,VALID,0.289063,
2005-02-07, 01:20:00,VALID,919.788,VALID,0,VALID,100,VALID,-0.0849042,VALID,19.1691,VALID,42,VALID,0.0250727,
2005-02-07, 01:21:00,VALID,919.787,VALID,0,VALID,100,VALID,-0.0339617,VALID,19.1741,VALID,42,VALID,0.28468,
2005-02-07, 01:22:00,VALID,919.79,VALID,0,VALID,100,VALID,0,VALID,19.194,VALID,42,VALID,0.434103,
2005-02-07, 01:23:00,VALID,919.8,VALID,0,VALID,100,VALID,0.0169808,VALID,19.1833,VALID,35,VALID,0.658594,
2005-02-07, 01:24:00,VALID,919.788,VALID,0,VALID,100,VALID,0,VALID,19.1801,VALID,32,VALID,0.699695,
2005-02-07, 01:25:00,VALID,919.776,VALID,0,VALID,100,VALID,0.0339617,VALID,19.2032,VALID,33,VALID,0.687695,
2005-02-07, 01:26:00,VALID,919.771,VALID,0,VALID,100,VALID,0,VALID,19.2064,VALID,44,VALID,0.677782,
2005-02-07, 01:27:00,VALID,919.772,VALID,0,VALID,100,VALID,0,VALID,19.2166,VALID,47,VALID,0.535061,
2005-02-07, 01:28:00,VALID,919.761,VALID,0,VALID,100,VALID,-0.0169808,VALID,19.2196,VALID,53,VALID,0.74673,
2005-02-07, 01:29:00,VALID,919.766,VALID,0,VALID,100,VALID,0,VALID,19.2198,VALID,55,VALID,0.576705,
2005-02-07, 01:30:00,VALID,919.761,VALID,0,VALID,100,VALID,0.0169808,VALID,19.2163,VALID,55,VALID,0.507068,
2005-02-07, 01:31:00,VALID,919.768,VALID,0,VALID,100,VALID,0,VALID,19.2196,VALID,55,VALID,0.368075,
2005-02-07, 01:32:00,VALID,919.763,VALID,0,VALID,100,VALID,0,VALID,19.2129,VALID,55,VALID,0.490734,
2005-02-07, 01:33:00,VALID,919.759,VALID,0,VALID,100,VALID,-0.0169808,VALID,19.2293,VALID,55,VALID,0.444803,
2005-02-07, 01:34:00,VALID,919.757,VALID,0,VALID,100,VALID,0,VALID,19.2357,VALID,55,VALID,0.592634,
2005-02-07, 01:35:00,VALID,919.747,VALID,0,VALID,100,VALID,0,VALID,19.2323,VALID,62,VALID,0.667302,
2005-02-07, 01:36:00,VALID,919.738,VALID,0,VALID,100,VALID,-0.0169808,VALID,19.236,VALID,88,VALID,0.714944,
2005-02-07, 01:37:00,VALID,919.725,VALID,0,VALID,100,VALID,-0.0169808,VALID,19.236,VALID,103,VALID,0.719131,
2005-02-07, 01:38:00,VALID,919.707,VALID,0,VALID,100,VALID,-0.0169808,VALID,19.229,VALID,101,VALID,0.710227,
2005-02-07, 01:39:00,VALID,919.695,VALID,0,VALID,100,VALID,0,VALID,19.226,VALID,91,VALID,0.591206,
2005-02-07, 01:40:00,VALID,919.674,VALID,0.2,VALID,100,VALID,-0.0169808,VALID,19.2392,VALID,68,VALID,0.614769,
2005-02-07, 01:41:00,VALID,919.653,VALID,0,VALID,100,VALID,0,VALID,19.2226,VALID,88,VALID,0.788876,
2005-02-07, 01:42:00,VALID,919.643,VALID,0,VALID,100,VALID,-0.0169808,VALID,19.2032,VALID,89,VALID,0.665015,
2005-02-07, 01:43:00,VALID,919.614,VALID,0,VALID,100,VALID,-0.0169808,VALID,19.2101,VALID,88,VALID,0.689406,
2005-02-07, 01:44:00,VALID,919.602,VALID,0,VALID,100,VALID,0,VALID,19.2034,VALID,87,VALID,0.664249,
2005-02-07, 01:45:00,VALID,919.573,VALID,0,VALID,100,VALID,0,VALID,19.2168,VALID,76,VALID,0.732701,
2005-02-07, 01:46:00,VALID,919.558,VALID,0,VALID,100,VALID,0,VALID,19.2129,VALID,79,VALID,0.825893,
2005-02-07, 01:47:00,VALID,919.54,VALID,0,VALID,100,VALID,-0.0169808,VALID,19.2032,VALID,91,VALID,0.666548,
2005-02-07, 01:48:00,VALID,919.527,VALID,0.2,VALID,100,VALID,-0.0169808,VALID,19.1935,VALID,97,VALID,0.717361,
2005-02-07, 01:49:00,VALID,919.5,VALID,0,VALID,100,VALID,-0.0339617,VALID,19.197,VALID,102,VALID,0.509943,
2005-02-07, 01:50:00,VALID,919.488,VALID,0,VALID,100,VALID,-0.0339617,VALID,19.187,VALID,102,VALID,0.643674,
2005-02-07, 01:51:00,VALID,919.463,VALID,0,VALID,100,VALID,-0.0339617,VALID,19.1806,VALID,102,VALID,0.494606,
2005-02-07, 01:52:00,VALID,919.448,VALID,0,VALID,100,VALID,-0.0169808,VALID,19.1806,VALID,102,VALID,0.407552,
2005-02-07, 01:53:00,VALID,919.422,VALID,0,VALID,100,VALID,-0.0169808,VALID,19.2034,VALID,102,VALID,0.456577,
2005-02-07, 01:54:00,VALID,919.394,VALID,0,VALID,100,VALID,-0.0169808,VALID,19.19,VALID,102,VALID,0.75372,
2005-02-07, 01:55:00,VALID,919.37,VALID,0,VALID,100,VALID,0,VALID,19.1873,VALID,103,VALID,0.783482,
2005-02-07, 01:56:00,VALID,919.343,VALID,0,VALID,100,VALID,-0.0169808,VALID,19.1778,VALID,103,VALID,0.701791,
2005-02-07, 01:57:00,VALID,919.324,VALID,0,VALID,100,VALID,-0.0169808,VALID,19.1741,VALID,105,VALID,0.71005,
2005-02-07, 01:58:00,VALID,919.295,VALID,0,VALID,100,VALID,0,VALID,19.1771,VALID,108,VALID,0.441497,
2005-02-07, 01:59:00,VALID,919.285,VALID,0,VALID,100,VALID,-0.0169808,VALID,19.197,VALID,118,VALID,0.739955,
2005-02-07, 02:00:00,VALID,919.281,VALID,0,VALID,100,VALID,-0.0169808,VALID,19.1774,VALID,118,VALID,0.623512,
2005-02-07, 02:01:00,VALID,919.27,VALID,0,VALID,100,VALID,-0.0169808,VALID,19.1873,VALID,120,VALID,0.74814,
2005-02-07, 02:02:00,VALID,919.276,VALID,0,VALID,100,VALID,0,VALID,19.1744,VALID,133,VALID,0.97061,
2005-02-07, 02:03:00,VALID,919.275,VALID,0,VALID,100,VALID,-0.0169808,VALID,19.1741,VALID,140,VALID,0.983817,
2005-02-07, 02:04:00,VALID,919.26,VALID,0,VALID,100,VALID,0,VALID,19.1746,VALID,140,VALID,0.884588,
2005-02-07, 02:05:00,VALID,919.246,VALID,0,VALID,100,VALID,0,VALID,19.1644,VALID,156,VALID,0.613281,
2005-02-07, 02:06:00,VALID,919.225,VALID,0,VALID,100,VALID,0,VALID,19.1615,VALID,154,VALID,0.963068,
2005-02-07, 02:07:00,VALID,919.208,VALID,0,VALID,100,VALID,0,VALID,19.1677,VALID,150,VALID,0.901972,
2005-02-07, 02:08:00,VALID,919.201,VALID,0,VALID,100,VALID,-0.0339617,VALID,19.1545,VALID,146,VALID,0.720898,
2005-02-07, 02:09:00,VALID,919.187,VALID,0,VALID,100,VALID,0,VALID,19.1446,VALID,143,VALID,0.62593,
2005-02-07, 02:10:00,VALID,919.179,VALID,0,VALID,100,VALID,-0.0339617,VALID,19.1418,VALID,141,VALID,0.408026,
2005-02-07, 02:11:00,VALID,919.168,VALID,0,VALID,100,VALID,0,VALID,19.1453,VALID,137,VALID,0.478468,
2005-02-07, 02:12:00,VALID,919.161,VALID,0,VALID,100,VALID,0,VALID,19.1423,VALID,134,VALID,0.363982,
2005-02-07, 02:13:00,VALID,919.142,VALID,0,VALID,100,VALID,0,VALID,19.1513,VALID,134,VALID,0.312872,
2005-02-07, 02:14:00,VALID,919.148,VALID,0,VALID,100,VALID,0,VALID,19.1545,VALID,127,VALID,0.243823,
2005-02-07, 02:15:00,VALID,919.144,VALID,0,VALID,100,VALID,0,VALID,19.1677,VALID,125,VALID,0.19549,
2005-02-07, 02:16:00,VALID,919.138,VALID,0,VALID,100,VALID,-0.0169808,VALID,19.1679,VALID,125,VALID,0.103516,
2005-02-07, 02:17:00,VALID,919.136,VALID,0,VALID,100,VALID,0,VALID,19.1744,VALID,125,VALID,0.102778,
2005-02-07, 02:18:00,VALID,919.128,VALID,0,VALID,100,VALID,0.0169808,VALID,19.187,VALID,125,VALID,0.0783155,
2005-02-07, 02:19:00,VALID,919.132,VALID,0,VALID,100,VALID,0,VALID,19.1739,VALID,125,VALID,0.121394,
2005-02-07, 02:20:00,VALID,919.118,VALID,0,VALID,100,VALID,-0.0339617,VALID,19.1942,VALID,125,VALID,0.245312,
2005-02-07, 02:21:00,VALID,919.114,VALID,0,VALID,100,VALID,0,VALID,19.1781,VALID,125,VALID,0.425868,
2005-02-07, 02:22:00,VALID,919.1,VALID,0,VALID,100,VALID,-0.0169808,VALID,19.1843,VALID,125,VALID,0.557231,
2005-02-07, 02:23:00,VALID,919.102,VALID,0,VALID,100,VALID,0,VALID,19.1975,VALID,125,VALID,0.529916,
2005-02-07, 02:24:00,VALID,919.09,VALID,0,VALID,100,VALID,0,VALID,19.2109,VALID,125,VALID,0.437305,
2005-02-07, 02:25:00,VALID,919.091,VALID,0,VALID,100,VALID,0,VALID,19.2037,VALID,125,VALID,0.407315,
2005-02-07, 02:26:00,VALID,919.061,VALID,0,VALID,100,VALID,0,VALID,19.2201,VALID,125,VALID,0.577398,
2005-02-07, 02:27:00,VALID,919.047,VALID,0,VALID,100,VALID,0,VALID,19.2494,VALID,130,VALID,0.622093,
2005-02-07, 02:28:00,VALID,919.029,VALID,0,VALID,100,VALID,0,VALID,19.2687,VALID,132,VALID,0.499238,
2005-02-07, 02:29:00,VALID,919.028,VALID,0,VALID,100,VALID,-0.0169808,VALID,19.2817,VALID,132,VALID,0.394345,
2005-02-07, 02:30:00,VALID,919.004,VALID,0,VALID,100,VALID,0,VALID,19.3043,VALID,132,VALID,0.151296,
2005-02-07, 02:31:00,VALID,919.009,VALID,0,VALID,100,VALID,0.0169808,VALID,19.3102,VALID,132,VALID,0.220833,
2005-02-07, 02:32:00,VALID,919.011,VALID,0,VALID,100,VALID,0,VALID,19.3102,VALID,132,VALID,0.139382,
2005-02-07, 02:33:00,VALID,919.008,VALID,0,VALID,100,VALID,-0.0339617,VALID,19.3197,VALID,132,VALID,0.216319,
2005-02-07, 02:34:00,VALID,918.998,VALID,0,VALID,100,VALID,0,VALID,19.3366,VALID,132,VALID,0.15483,
2005-02-07, 02:35:00,VALID,918.994,VALID,0,VALID,100,VALID,0,VALID,19.3261,VALID,132,VALID,0,
2005-02-07, 02:36:00,VALID,918.986,VALID,0,VALID,100,VALID,0,VALID,19.349,VALID,132,VALID,0,
2005-02-07, 02:37:00,VALID,918.982,VALID,0,VALID,100,VALID,0,VALID,19.3592,VALID,132,VALID,0,
2005-02-07, 02:38:00,VALID,918.97,VALID,0,VALID,100,VALID,0,VALID,19.3726,VALID,132,VALID,0.126758,
2005-02-07, 02:39:00,VALID,918.972,VALID,0,VALID,100,VALID,0,VALID,19.3718,VALID,132,VALID,0,
2005-02-07, 02:40:00,VALID,918.97,VALID,0,VALID,100,VALID,0,VALID,19.3944,VALID,132,VALID,0,
2005-02-07, 02:41:00,VALID,918.978,VALID,0,VALID,100,VALID,0,VALID,19.4272,VALID,132,VALID,0,
2005-02-07, 02:42:00,VALID,918.984,VALID,0,VALID,100,VALID,-0.0169808,VALID,19.4334,VALID,132,VALID,0,
2005-02-07, 02:43:00,VALID,918.99,VALID,0,VALID,100,VALID,-0.0169808,VALID,19.42,VALID,132,VALID,0,
2005-02-07, 02:44:00,VALID,918.984,VALID,0,VALID,100,VALID,0,VALID,19.4304,VALID,132,VALID,0,
2005-02-07, 02:45:00,VALID,918.982,VALID,0,VALID,100,VALID,0,VALID,19.4071,VALID,132,VALID,0,
2005-02-07, 02:46:00,VALID,918.974,VALID,0,VALID,100,VALID,0,VALID,19.3912,VALID,132,VALID,0,
2005-02-07, 02:47:00,VALID,918.954,VALID,0,VALID,100,VALID,0,VALID,19.3721,VALID,132,VALID,0,
2005-02-07, 02:48:00,VALID,918.96,VALID,0,VALID,100,VALID,-0.0169808,VALID,19.3691,VALID,131,VALID,0,
2005-02-07, 02:49:00,VALID,918.945,VALID,0,VALID,100,VALID,-0.0339617,VALID,19.3723,VALID,122,VALID,0.305398,
2005-02-07, 02:50:00,VALID,918.945,VALID,0,VALID,100,VALID,0,VALID,19.3716,VALID,116,VALID,1.05259,
2005-02-07, 02:51:00,VALID,918.944,VALID,0,VALID,100,VALID,0,VALID,19.3619,VALID,118,VALID,1.04707,
2005-02-07, 02:52:00,VALID,918.935,VALID,0,VALID,100,VALID,0,VALID,19.3552,VALID,111,VALID,1.0059,
2005-02-07, 02:53:00,VALID,918.935,VALID,0,VALID,100,VALID,0,VALID,19.3721,VALID,106,VALID,0.978743,
2005-02-07, 02:54:00,VALID,918.932,VALID,0,VALID,100,VALID,0,VALID,19.3654,VALID,110,VALID,1.03942,
2005-02-07, 02:55:00,VALID,918.933,VALID,0,VALID,100,VALID,0,VALID,19.3649,VALID,114,VALID,0.743278,
2005-02-07, 02:56:00,VALID,918.908,VALID,0,VALID,100,VALID,0,VALID,19.3813,VALID,101,VALID,1.04031,
2005-02-07, 02:57:00,VALID,918.895,VALID,0,VALID,100,VALID,0,VALID,19.3718,VALID,105,VALID,1.08739,
2005-02-07, 02:58:00,VALID,918.9,VALID,0,VALID,100,VALID,-0.0169808,VALID,19.3554,VALID,133,VALID,0.867759,
2005-02-07, 02:59:00,VALID,918.906,VALID,0,VALID,100,VALID,0,VALID,19.3395,VALID,131,VALID,1.10861,
2005-02-07, 03:00:00,VALID,918.903,VALID,0,VALID,100,VALID,0,VALID,19.3005,VALID,131,VALID,0.908296,
2005-02-07, 03:01:00,VALID,918.903,VALID,0,VALID,100,VALID,0,VALID,19.2948,VALID,129,VALID,0.890625,
2005-02-07, 03:02:00,VALID,918.912,VALID,0,VALID,100,VALID,0,VALID,19.2809,VALID,129,VALID,0.927684,
2005-02-07, 03:03:00,VALID,918.92,VALID,0,VALID,100,VALID,0,VALID,19.2752,VALID,120,VALID,0.72061,
2005-02-07, 03:04:00,VALID,918.915,VALID,0,VALID,100,VALID,-0.0169808,VALID,19.2715,VALID,134,VALID,0.87221,
2005-02-07, 03:05:00,VALID,918.931,VALID,0,VALID,100,VALID,-0.0169808,VALID,19.2586,VALID,138,VALID,0.908249,
2005-02-07, 03:06:00,VALID,918.927,VALID,0,VALID,100,VALID,-0.0169808,VALID,19.2583,VALID,136,VALID,0.858613,
2005-02-07, 03:07:00,VALID,918.929,VALID,0,VALID,100,VALID,0,VALID,19.2521,VALID,126,VALID,0.764695,
2005-02-07, 03:08:00,VALID,918.925,VALID,0,VALID,100,VALID,0,VALID,19.2588,VALID,125,VALID,0.734933,
2005-02-07, 03:09:00,VALID,918.924,VALID,0,VALID,100,VALID,-0.0339617,VALID,19.265,VALID,106,VALID,0.648047,
2005-02-07, 03:10:00,VALID,918.937,VALID,0,VALID,100,VALID,-0.0169808,VALID,19.275,VALID,101,VALID,0.441584,
2005-02-07, 03:11:00,VALID,918.927,VALID,0,VALID,100,VALID,-0.0169808,VALID,19.2715,VALID,107,VALID,0.868253,
2005-02-07, 03:12:00,VALID,918.913,VALID,0,VALID,100,VALID,0,VALID,19.2782,VALID,105,VALID,0.742543,
2005-02-07, 03:13:00,VALID,918.893,VALID,0,VALID,100,VALID,-0.0339617,VALID,19.2846,VALID,110,VALID,0.492773,
2005-02-07, 03:14:00,VALID,918.883,VALID,0,VALID,100,VALID,-0.0509425,VALID,19.2973,VALID,123,VALID,0.544331,
2005-02-07, 03:15:00,VALID,918.865,VALID,0,VALID,100,VALID,-0.0339617,VALID,19.3142,VALID,111,VALID,0.406613,
2005-02-07, 03:16:00,VALID,918.861,VALID,0,VALID,100,VALID,0,VALID,19.3167,VALID,123,VALID,0.539435,
2005-02-07, 03:17:00,VALID,918.865,VALID,0,VALID,100,VALID,-0.0169808,VALID,19.3204,VALID,156,VALID,0.688033,
2005-02-07, 03:18:00,VALID,918.847,VALID,0,VALID,100,VALID,-0.0169808,VALID,19.3231,VALID,153,VALID,0.478198,
2005-02-07, 03:19:00,VALID,918.87,VALID,0,VALID,100,VALID,-0.0169808,VALID,19.3366,VALID,143,VALID,0.725074,
2005-02-07, 03:20:00,VALID,918.867,VALID,0,VALID,100,VALID,0,VALID,19.3495,VALID,156,VALID,0.729992,
2005-02-07, 03:21:00,VALID,918.876,VALID,0,VALID,100,VALID,0.0169808,VALID,19.3582,VALID,165,VALID,0.447917,
2005-02-07, 03:22:00,VALID,918.879,VALID,0,VALID,100,VALID,0,VALID,19.3776,VALID,178,VALID,0.394622,
2005-02-07, 03:23:00,VALID,918.868,VALID,0,VALID,100,VALID,0,VALID,19.381,VALID,178,VALID,0.277043,
2005-02-07, 03:24:00,VALID,918.874,VALID,0,VALID,100,VALID,0,VALID,19.3743,VALID,178,VALID,0.232376,
2005-02-07, 03:25:00,VALID,918.877,VALID,0,VALID,100,VALID,-0.0169808,VALID,19.3746,VALID,178,VALID,0.267485,
2005-02-07, 03:26:00,VALID,918.864,VALID,0,VALID,100,VALID,0,VALID,19.3617,VALID,179,VALID,0.343192,
2005-02-07, 03:27:00,VALID,918.855,VALID,0,VALID,100,VALID,0,VALID,19.355,VALID,179,VALID,0.298549,
2005-02-07, 03:28:00,VALID,918.862,VALID,0,VALID,100,VALID,0.0339617,VALID,19.348,VALID,179,VALID,0.249637,
2005-02-07, 03:29:00,VALID,918.856,VALID,0,VALID,100,VALID,0.0169808,VALID,19.3582,VALID,179,VALID,0.140244,
2005-02-07, 03:30:00,VALID,918.861,VALID,0,VALID,100,VALID,0.0679233,VALID,19.3609,VALID,179,VALID,0.00426136,
2005-02-07, 03:31:00,VALID,918.852,VALID,0,VALID,100,VALID,0.0679233,VALID,19.354,VALID,179,VALID,0,
2005-02-07, 03:32:00,VALID,918.868,VALID,0,VALID,100,VALID,0.0169808,VALID,19.3649,VALID,179,VALID,0,
2005-02-07, 03:33:00,VALID,918.877,VALID,0,VALID,100,VALID,0.0339617,VALID,19.3743,VALID,179,VALID,0,
2005-02-07, 03:34:00,VALID,918.865,VALID,0,VALID,100,VALID,0.0169808,VALID,19.3741,VALID,179,VALID,0,
2005-02-07, 03:35:00,VALID,918.863,VALID,0,VALID,100,VALID,0.0169808,VALID,19.384,VALID,96,VALID,0.335938,
2005-02-07, 03:36:00,VALID,918.867,VALID,0,VALID,100,VALID,0.0509425,VALID,19.3778,VALID,73,VALID,0.431504,
2005-02-07, 03:37:00,VALID,918.873,VALID,0,VALID,100,VALID,0,VALID,19.3676,VALID,73,VALID,0.466319,
2005-02-07, 03:38:00,VALID,918.867,VALID,0,VALID,100,VALID,0.0169808,VALID,19.3649,VALID,79,VALID,0.570858,
2005-02-07, 03:39:00,VALID,918.871,VALID,0,VALID,100,VALID,0.0169808,VALID,19.3676,VALID,96,VALID,0.600074,
2005-02-07, 03:40:00,VALID,918.864,VALID,0,VALID,100,VALID,0,VALID,19.3776,VALID,96,VALID,0.614329,
2005-02-07, 03:41:00,VALID,918.851,VALID,0,VALID,100,VALID,0,VALID,19.39,VALID,96,VALID,0.553779,
2005-02-07, 03:42:00,VALID,918.855,VALID,0,VALID,100,VALID,0.0339617,VALID,19.3833,VALID,96,VALID,0.495192,
2005-02-07, 03:43:00,VALID,918.827,VALID,0,VALID,100,VALID,0,VALID,19.4034,VALID,104,VALID,0.549107,
2005-02-07, 03:44:00,VALID,918.818,VALID,0,VALID,100,VALID,0.0169808,VALID,19.4034,VALID,115,VALID,0.587536,
2005-02-07, 03:45:00,VALID,918.813,VALID,0,VALID,100,VALID,0,VALID,19.3997,VALID,115,VALID,0.491122,